Flag for U.S.A. Weather past 2 weeks in Oberlin, Ohio, U.S.A.

Now
69 °F

Broken clouds.


Feels Like: 69 °F
Forecast: 59 / 76 °F
Wind: 5 mph from Southwest

Location: Lorain County Regional Airport

Current Time: Jul 29, 2014 at 9:08:12 PM

Latest Report: Jul 29, 2014 at 7:53 PM


Visibility: 10 mi

Pressure: 30.00 "Hg

Humidity: 61%

Dew point: 55 °F

Location of OberlinLocation

Historic Weather in Oberlin — Graph

°F

Oberlin temperature yesterday

Maximum temperature yesterday: 70 °F (at 12:53 PM)
Minimum temperature yesterday: 63 °F (at 10:53 PM)
Average temperature yesterday: 67 °F

Past Weeks' High & Low Weather Summary

 TemperatureHumidityPressure
High88 °F (Jul 22, 12:53 PM)91% (Jul 26, 8:53 PM)30.25 "Hg (Jul 26, 8:53 PM)
Low53 °F (Jul 25, 5:53 AM)27% (Jul 17, 5:53 PM)29.61 "Hg (Jul 27, 6:53 PM)
Average70 °F68%29.99 "Hg
* Reported Jul 14 7:53 PM — Jul 29 7:53 PM, Oberlin, Weather by CustomWeather, © 2014

Note: Actual official high and low records may vary slightly from our data, if they occured in-between our weather recording intervals... More about our weather records

Advertising

Oberlin weather history for previous 24 hours

 ConditionsComfort  
Time TempWeatherWind HumidityBarometerVisibility
7:53 PM
Jul 29
69 °FBroken clouds.5 mph61%30.00 "Hg10 mi
6:53 PM71 °FScattered clouds.6 mph55%30.00 "Hg10 mi
5:53 PM71 °FMostly cloudy.7 mph53%30.00 "Hg10 mi
4:53 PM73 °FScattered clouds.8 mph46%30.00 "Hg10 mi
3:53 PM72 °FPartly sunny.6 mph48%30.01 "Hg10 mi
2:53 PM70 °FPartly sunny.7 mph49%30.01 "Hg10 mi
1:53 PM70 °FScattered clouds.9 mph51%30.02 "Hg10 mi
12:53 PM70 °FScattered clouds.12 mph53%30.02 "Hg10 mi
11:53 AM68 °FPartly sunny.12 mph51%30.03 "Hg10 mi
10:53 AM66 °FPartly sunny.5 mph50%30.02 "Hg10 mi
9:53 AM65 °FOvercast.6 mph61%30.01 "Hg10 mi
8:53 AM63 °FOvercast.6 mph68%30.01 "Hg10 mi
7:53 AM59 °FOvercast.5 mph75%29.99 "Hg10 mi
6:53 AM57 °FOvercast.6 mph78%29.98 "Hg10 mi
5:53 AM56 °FOvercast.5 mph81%29.97 "Hg10 mi
4:53 AM54 °FPassing clouds.5 mph80%29.97 "Hg10 mi
3:53 AM55 °FPassing clouds.5 mph77%29.96 "Hg10 mi
2:53 AM58 °FPassing clouds.3 mph70%29.97 "Hg10 mi
1:53 AM62 °FOvercast.6 mph58%29.98 "Hg10 mi
12:53 AM62 °FOvercast.8 mph58%29.98 "Hg10 mi
11:53 PM
Jul 28
63 °FOvercast.9 mph58%29.97 "Hg10 mi
10:53 PM63 °FOvercast.12 mph65%29.98 "Hg10 mi
9:53 PM64 °FOvercast.13 mph65%29.97 "Hg10 mi
Weather by CustomWeather, © 2014

See weather overviewHow to use our weather pages